| time (UTC) | temp C | wind direction | speed KPH | gust KPH | rain 1hr cm | rain 24hr cm | rain mn cm | humidity % | barometer mb |
| 20260503034012 | 12 | 223 | 17.7 | 20.9 | 0.00 | 0.00 | 0.00 | 59 | 1015.9 |
| 20260503033511 | 12 | 211 | 16.1 | 29.0 | 0.00 | 0.00 | 0.00 | 56 | 1016.0 |
| 20260503033100 | 13 | 202 | 19.3 | 29.0 | 0.00 | 0.00 | 0.00 | 56 | 1016.0 |
| 20260503032516 | 13 | 220 | 20.9 | 30.6 | 0.00 | 0.00 | 0.00 | 56 | 1016.1 |
| 20260503032020 | 15 | 219 | 19.3 | 33.8 | 0.00 | 0.00 | 0.00 | 49 | 1016.0 |
| 20260503031559 | 15 | 220 | 22.5 | 33.8 | 0.00 | 0.00 | 0.00 | 46 | 1015.9 |
| 20260503031018 | 13 | 224 | 12.9 | 19.3 | 0.00 | 0.00 | 0.00 | 46 | 1016.2 |
| 20260503030517 | 13 | 294 | 3.2 | 12.9 | 0.00 | 0.00 | 0.00 | 47 | 1016.2 |
| 20260503030052 | 13 | 313 | 8.0 | 9.7 | 0.00 | 0.00 | 0.00 | 48 | 1016.1 |
| 20260503025514 | 13 | 335 | 3.2 | 4.8 | 0.00 | 0.00 | 0.00 | 46 | 1015.9 |
| 20260503025014 | 13 | 335 | 3.2 | 4.8 | 0.00 | 0.00 | 0.00 | 46 | 1015.8 |
| 20260503024552 | 14 | 15 | 0.0 | 0.0 | 0.00 | 0.00 | 0.00 | 44 | 1015.9 |
| 20260503024011 | 14 | 65 | 0.0 | 0.0 | 0.00 | 0.00 | 0.00 | 44 | 1015.9 |
| 20260503023512 | 15 | 65 | 0.0 | 0.0 | 0.00 | 0.00 | 0.00 | 45 | 1015.9 |
| 20260503023046 | 15 | 65 | 0.0 | 0.0 | 0.00 | 0.00 | 0.00 | 44 | 1015.9 |
| 20260503022514 | 15 | 65 | 0.0 | 4.8 | 0.00 | 0.00 | 0.00 | 44 | 1015.8 |
| 20260503022011 | 15 | 65 | 0.0 | 6.4 | 0.00 | 0.00 | 0.00 | 44 | 1015.7 |
| 20260503021558 | 15 | 65 | 1.6 | 6.4 | 0.00 | 0.00 | 0.00 | 43 | 1015.6 |
| 20260503021017 | 16 | 56 | 0.0 | 6.4 | 0.00 | 0.00 | 0.00 | 42 | 1015.6 |
| 20260503020517 | 16 | 44 | 0.0 | 0.0 | 0.00 | 0.00 | 0.00 | 40 | 1015.6 |
| 20260503020050 | 16 | 41 | 0.0 | 0.0 | 0.00 | 0.00 | 0.00 | 40 | 1015.7 |
| 20260503015512 | 16 | 38 | 0.0 | 0.0 | 0.00 | 0.00 | 0.00 | 40 | 1015.8 |
| 20260503015013 | 16 | 38 | 0.0 | 0.0 | 0.00 | 0.00 | 0.00 | 40 | 1015.6 |
| 20260503014547 | 16 | 38 | 0.0 | 1.6 | 0.00 | 0.00 | 0.00 | 40 | 1015.8 |
| 20260503014015 | 16 | 38 | 0.0 | 6.4 | 0.00 | 0.00 | 0.00 | 40 | 1015.8 |
| 20260503013518 | 16 | 38 | 0.0 | 6.4 | 0.00 | 0.00 | 0.00 | 40 | 1015.7 |
| 20260503013043 | 17 | 21 | 0.0 | 6.4 | 0.00 | 0.00 | 0.00 | 39 | 1015.8 |
| 20260503012514 | 17 | 44 | 1.6 | 4.8 | 0.00 | 0.00 | 0.00 | 39 | 1015.8 |
| 20260503012014 | 17 | 5 | 0.0 | 4.8 | 0.00 | 0.00 | 0.00 | 38 | 1015.7 |
| 20260503011553 | 18 | 336 | 0.0 | 4.8 | 0.00 | 0.00 | 0.00 | 36 | 1015.7 |
| 20260503011014 | 18 | 258 | 0.0 | 0.0 | 0.00 | 0.00 | 0.00 | 37 | 1015.7 |
| 20260503010516 | 18 | 258 | 0.0 | 6.4 | 0.00 | 0.00 | 0.00 | 36 | 1015.7 |
| 20260503010057 | 18 | 258 | 0.0 | 9.7 | 0.00 | 0.00 | 0.00 | 36 | 1015.9 |
| 20260503005515 | 18 | 281 | 1.6 | 12.9 | 0.00 | 0.00 | 0.00 | 36 | 1015.7 |
| 20260503005016 | 18 | 292 | 4.8 | 12.9 | 0.00 | 0.00 | 0.00 | 36 | 1015.9 |
| 20260503004611 | 18 | 316 | 4.8 | 12.9 | 0.00 | 0.00 | 0.00 | 37 | 1015.9 |
| 20260503004015 | 18 | 302 | 0.0 | 8.0 | 0.00 | 0.00 | 0.00 | 36 | 1016.1 |
| 20260503003515 | 18 | 289 | 1.6 | 8.0 | 0.00 | 0.00 | 0.00 | 36 | 1016.0 |
| 20260503003048 | 18 | 288 | 0.0 | 4.8 | 0.00 | 0.00 | 0.00 | 37 | 1016.1 |
| 20260503002514 | 17 | 288 | 0.0 | 4.8 | 0.00 | 0.00 | 0.00 | 38 | 1016.2 |
| 20260503002020 | 17 | 288 | 0.0 | 6.4 | 0.00 | 0.00 | 0.00 | 38 | 1016.3 |
| 20260503001602 | 17 | 288 | 0.0 | 6.4 | 0.00 | 0.00 | 0.00 | 38 | 1016.3 |
| 20260503001013 | 17 | 334 | 0.0 | 6.4 | 0.00 | 0.00 | 0.00 | 38 | 1016.3 |
| 20260503000520 | 17 | 290 | 0.0 | 8.0 | 0.00 | 0.00 | 0.00 | 38 | 1016.3 |
| 20260503000055 | 17 | 346 | 1.6 | 8.0 | 0.00 | 0.00 | 0.00 | 38 | 1016.4 |
| 20260502235515 | 17 | 298 | 0.0 | 8.0 | 0.00 | 0.00 | 0.00 | 38 | 1016.5 |
| 20260502235016 | 17 | 214 | 0.0 | 8.0 | 0.00 | 0.00 | 0.00 | 37 | 1016.4 |
| 20260502234611 | 17 | 242 | 0.0 | 11.3 | 0.00 | 0.00 | 0.00 | 37 | 1016.4 |
| 20260502234013 | 17 | 257 | 1.6 | 27.4 | 0.00 | 0.00 | 0.00 | 37 | 1016.6 |
| 20260502233513 | 17 | 263 | 6.4 | 27.4 | 0.00 | 0.00 | 0.00 | 38 | 1016.4 |
| 20260502233106 | 18 | 173 | 0.0 | 17.7 | 0.00 | 0.00 | 0.00 | 38 | 1016.6 |
| 20260502232515 | 18 | 78 | 4.8 | 17.7 | 0.00 | 0.00 | 0.00 | 38 | 1016.4 |
| 20260502232014 | 18 | 40 | 0.0 | 14.5 | 0.00 | 0.00 | 0.00 | 39 | 1016.6 |
| 20260502231604 | 18 | 107 | 6.4 | 14.5 | 0.00 | 0.00 | 0.00 | 38 | 1016.5 |
| 20260502231016 | 18 | 108 | 9.7 | 14.5 | 0.00 | 0.00 | 0.00 | 37 | 1016.6 |
| 20260502230513 | 18 | 111 | 0.0 | 3.2 | 0.00 | 0.00 | 0.00 | 39 | 1016.8 |
| 20260502230056 | 17 | 94 | 0.0 | 16.1 | 0.00 | 0.00 | 0.00 | 38 | 1016.8 |
| 20260502225515 | 17 | 149 | 6.4 | 19.3 | 0.00 | 0.00 | 0.00 | 38 | 1017.1 |
| 20260502225016 | 17 | 126 | 9.7 | 19.3 | 0.00 | 0.00 | 0.00 | 39 | 1016.9 |
| 20260502224549 | 17 | 68 | 3.2 | 16.1 | 0.00 | 0.00 | 0.00 | 38 | 1017.1 |
| 20260502224017 | 17 | 130 | 6.4 | 16.1 | 0.00 | 0.00 | 0.00 | 39 | 1017.1 |
| 20260502223515 | 17 | 157 | 1.6 | 11.3 | 0.00 | 0.00 | 0.00 | 39 | 1017.4 |
| 20260502223051 | 17 | 213 | 3.2 | 12.9 | 0.00 | 0.00 | 0.00 | 39 | 1017.5 |
| 20260502222517 | 17 | 127 | 4.8 | 12.9 | 0.00 | 0.00 | 0.00 | 39 | 1017.3 |
| 20260502222013 | 17 | 94 | 0.0 | 14.5 | 0.00 | 0.00 | 0.00 | 40 | 1017.6 |
| 20260502221604 | 17 | 138 | 3.2 | 14.5 | 0.00 | 0.00 | 0.00 | 40 | 1017.6 |
| 20260502221017 | 17 | 346 | 0.0 | 1.6 | 0.00 | 0.00 | 0.00 | 41 | 1017.8 |
| 20260502220515 | 16 | 352 | 0.0 | 6.4 | 0.00 | 0.00 | 0.00 | 41 | 1017.8 |
| 20260502220053 | 16 | 123 | 0.0 | 12.9 | 0.00 | 0.00 | 0.00 | 41 | 1017.7 |
| 20260502215514 | 16 | 98 | 3.2 | 12.9 | 0.00 | 0.00 | 0.00 | 41 | 1017.8 |
| 20260502215016 | 16 | 105 | 3.2 | 12.9 | 0.00 | 0.00 | 0.00 | 41 | 1017.8 |
| 20260502214603 | 17 | 53 | 6.4 | 9.7 | 0.00 | 0.00 | 0.00 | 41 | 1017.9 |
| 20260502214014 | 17 | 57 | 4.8 | 9.7 | 0.00 | 0.00 | 0.00 | 41 | 1018.1 |
| 20260502213520 | 17 | 69 | 4.8 | 8.0 | 0.00 | 0.00 | 0.00 | 43 | 1018.3 |
| 20260502213057 | 16 | 143 | 0.0 | 6.4 | 0.00 | 0.00 | 0.00 | 41 | 1018.3 |
| 20260502212517 | 16 | 130 | 0.0 | 0.0 | 0.00 | 0.00 | 0.00 | 42 | 1018.4 |
| 20260502212016 | 16 | 50 | 0.0 | 11.3 | 0.00 | 0.00 | 0.00 | 42 | 1018.5 |
| 20260502211559 | 16 | 161 | 0.0 | 11.3 | 0.00 | 0.00 | 0.00 | 42 | 1018.6 |
| 20260502211020 | 16 | 97 | 0.0 | 14.5 | 0.00 | 0.00 | 0.00 | 43 | 1018.5 |
| 20260502210517 | 16 | 177 | 0.0 | 14.5 | 0.00 | 0.00 | 0.00 | 43 | 1018.7 |
| 20260502210054 | 16 | 101 | 0.0 | 16.1 | 0.00 | 0.00 | 0.00 | 43 | 1018.7 |
| 20260502205516 | 16 | 74 | 3.2 | 16.1 | 0.00 | 0.00 | 0.00 | 43 | 1018.8 |
| 20260502205017 | 16 | 48 | 1.6 | 11.3 | 0.00 | 0.00 | 0.00 | 44 | 1018.7 |
| 20260502204555 | 16 | 48 | 6.4 | 11.3 | 0.00 | 0.00 | 0.00 | 44 | 1018.6 |
| 20260502204014 | 16 | 49 | 1.6 | 11.3 | 0.00 | 0.00 | 0.00 | 44 | 1018.7 |
| 20260502203514 | 16 | 96 | 1.6 | 16.1 | 0.00 | 0.00 | 0.00 | 43 | 1018.7 |
| 20260502203113 | 16 | 82 | 8.0 | 19.3 | 0.00 | 0.00 | 0.00 | 45 | 1018.7 |
| 20260502202516 | 16 | 117 | 8.0 | 19.3 | 0.00 | 0.00 | 0.00 | 44 | 1018.8 |
| 20260502202013 | 16 | 84 | 8.0 | 19.3 | 0.00 | 0.00 | 0.00 | 44 | 1018.8 |
| 20260502201600 | 16 | 84 | 8.0 | 22.5 | 0.00 | 0.00 | 0.00 | 44 | 1019.0 |
| 20260502201018 | 16 | 126 | 14.5 | 22.5 | 0.00 | 0.00 | 0.00 | 43 | 1018.9 |
| 20260502200515 | 16 | 84 | 4.8 | 22.5 | 0.00 | 0.00 | 0.00 | 45 | 1019.1 |
| 20260502200101 | 16 | 43 | 12.9 | 22.5 | 0.00 | 0.00 | 0.00 | 45 | 1019.1 |
| 20260502195515 | 16 | 73 | 0.0 | 25.7 | 0.00 | 0.00 | 0.00 | 45 | 1019.1 |
| 20260502195017 | 15 | 92 | 4.8 | 25.7 | 0.00 | 0.00 | 0.00 | 45 | 1019.3 |
| 20260502194607 | 16 | 138 | 6.4 | 16.1 | 0.00 | 0.00 | 0.00 | 44 | 1019.4 |
| 20260502194017 | 16 | 28 | 1.6 | 12.9 | 0.00 | 0.00 | 0.00 | 45 | 1019.5 |
| 20260502193514 | 16 | 44 | 3.2 | 17.7 | 0.00 | 0.00 | 0.00 | 44 | 1019.4 |
| 20260502193059 | 16 | 23 | 11.3 | 17.7 | 0.00 | 0.00 | 0.00 | 44 | 1019.5 |
| 20260502192516 | 16 | 22 | 0.0 | 14.5 | 0.00 | 0.00 | 0.00 | 45 | 1019.6 |
| 20260502192015 | 16 | 346 | 1.6 | 16.1 | 0.00 | 0.00 | 0.00 | 43 | 1019.6 |
| 20260502191610 | 16 | 352 | 6.4 | 16.1 | 0.00 | 0.00 | 0.00 | 44 | 1019.8 |
| 20260502191018 | 15 | 297 | 9.7 | 19.3 | 0.00 | 0.00 | 0.00 | 44 | 1019.8 |
| 20260502190514 | 15 | 350 | 11.3 | 19.3 | 0.00 | 0.00 | 0.00 | 44 | 1019.8 |
| 20260502190107 | 15 | 319 | 12.9 | 22.5 | 0.00 | 0.00 | 0.00 | 44 | 1019.7 |
| 20260502185522 | 15 | 326 | 11.3 | 22.5 | 0.00 | 0.00 | 0.00 | 44 | 1019.6 |
| 20260502185017 | 15 | 10 | 6.4 | 12.9 | 0.00 | 0.00 | 0.00 | 44 | 1019.8 |
| 20260502184607 | 15 | 257 | 3.2 | 14.5 | 0.00 | 0.00 | 0.00 | 43 | 1019.8 |
| 20260502184020 | 15 | 342 | 8.0 | 14.5 | 0.00 | 0.00 | 0.00 | 43 | 1019.9 |
| 20260502183518 | 15 | 41 | 0.0 | 6.4 | 0.00 | 0.00 | 0.00 | 44 | 1020.0 |
| 20260502183103 | 16 | 23 | 0.0 | 4.8 | 0.00 | 0.00 | 0.00 | 43 | 1020.0 |
| 20260502182518 | 15 | 317 | 0.0 | 19.3 | 0.00 | 0.00 | 0.00 | 43 | 1019.9 |
| 20260502182018 | 15 | 286 | 9.7 | 19.3 | 0.00 | 0.00 | 0.00 | 43 | 1020.0 |
| 20260502181558 | 16 | 298 | 11.3 | 24.1 | 0.00 | 0.00 | 0.00 | 43 | 1020.1 |
| 20260502181019 | 16 | 302 | 11.3 | 27.4 | 0.00 | 0.00 | 0.00 | 43 | 1020.0 |
| 20260502180519 | 16 | 216 | 12.9 | 27.4 | 0.00 | 0.00 | 0.00 | 44 | 1020.1 |
| 20260502180111 | 16 | 261 | 17.7 | 27.4 | 0.00 | 0.00 | 0.00 | 43 | 1019.9 |
| 20260502170516 | 15 | 287 | 9.7 | 24.1 | 0.00 | 0.00 | 0.00 | 46 | 1019.9 |
| 20260502164015 | 15 | 294 | 20.9 | 27.4 | 0.00 | 0.00 | 0.00 | 46 | 1020.0 |
| 20260502163515 | 15 | 314 | 20.9 | 29.0 | 0.00 | 0.00 | 0.00 | 46 | 1020.1 |
| 20260502163109 | 15 | 327 | 11.3 | 25.7 | 0.00 | 0.00 | 0.00 | 45 | 1019.9 |
| 20260502162519 | 15 | 276 | 14.5 | 25.7 | 0.00 | 0.00 | 0.00 | 45 | 1020.0 |
| 20260502162015 | 15 | 290 | 4.8 | 25.7 | 0.00 | 0.00 | 0.00 | 45 | 1020.2 |
| 20260502161610 | 15 | 318 | 16.1 | 22.5 | 0.00 | 0.00 | 0.00 | 45 | 1020.1 |
| 20260502161015 | 15 | 327 | 14.5 | 25.7 | 0.00 | 0.00 | 0.00 | 46 | 1020.2 |
| 20260502160518 | 15 | 302 | 17.7 | 25.7 | 0.00 | 0.00 | 0.00 | 46 | 1020.1 |
| 20260502160110 | 15 | 327 | 16.1 | 24.1 | 0.00 | 0.00 | 0.00 | 46 | 1020.1 |
| 20260502152018 | 14 | 304 | 6.4 | 16.1 | 0.00 | 0.00 | 0.00 | 47 | 1020.1 |
| 20260502151611 | 14 | 325 | 9.7 | 17.7 | 0.00 | 0.00 | 0.00 | 47 | 1019.9 |
| 20260502151022 | 13 | 16 | 8.0 | 17.7 | 0.00 | 0.00 | 0.00 | 48 | 1020.0 |
| 20260502150516 | 13 | 31 | 4.8 | 19.3 | 0.00 | 0.00 | 0.00 | 47 | 1019.8 |
| 20260502150116 | 13 | 57 | 12.9 | 19.3 | 0.00 | 0.00 | 0.00 | 47 | 1019.6 |
| 20260502140113 | 12 | 49 | 12.9 | 20.9 | 0.00 | 0.00 | 0.00 | 50 | 1019.4 |
| 20260502130518 | 10 | 12 | 11.3 | 14.5 | 0.00 | 0.00 | 0.00 | 54 | 1019.1 |
| 20260502130110 | 10 | 11 | 8.0 | 16.1 | 0.00 | 0.00 | 0.00 | 54 | 1019.0 |
| 20260502123516 | 10 | 17 | 14.5 | 19.3 | 0.00 | 0.00 | 0.00 | 54 | 1018.9 |
| 20260502123112 | 10 | 17 | 14.5 | 20.9 | 0.00 | 0.00 | 0.00 | 54 | 1018.7 |
| 20260502122515 | 10 | 36 | 14.5 | 25.7 | 0.00 | 0.00 | 0.00 | 55 | 1018.6 |
| 20260502122017 | 10 | 35 | 17.7 | 27.4 | 0.00 | 0.00 | 0.00 | 55 | 1018.5 |
| 20260502121603 | 10 | 26 | 17.7 | 27.4 | 0.00 | 0.00 | 0.00 | 55 | 1018.4 |
| 20260502121015 | 9 | 27 | 19.3 | 25.7 | 0.00 | 0.00 | 0.00 | 55 | 1018.3 |
| 20260502120515 | 9 | 32 | 19.3 | 25.7 | 0.00 | 0.00 | 0.00 | 55 | 1018.3 |
| 20260502120114 | 9 | 46 | 16.1 | 27.4 | 0.00 | 0.00 | 0.00 | 56 | 1018.3 |
| 20260502115519 | 9 | 38 | 16.1 | 27.4 | 0.00 | 0.00 | 0.00 | 55 | 1018.3 |
| 20260502115017 | 10 | 54 | 19.3 | 30.6 | 0.00 | 0.00 | 0.00 | 55 | 1018.2 |
| 20260502114620 | 10 | 55 | 20.9 | 30.6 | 0.00 | 0.00 | 0.00 | 55 | 1017.9 |
| 20260502114017 | 10 | 40 | 22.5 | 32.2 | 0.00 | 0.00 | 0.00 | 54 | 1018.1 |
| 20260502113516 | 10 | 38 | 22.5 | 32.2 | 0.00 | 0.00 | 0.00 | 54 | 1018.0 |
| 20260502113103 | 10 | 32 | 25.7 | 37.0 | 0.00 | 0.00 | 0.00 | 53 | 1017.9 |
| 20260502112515 | 10 | 31 | 27.4 | 37.0 | 0.00 | 0.00 | 0.00 | 53 | 1017.8 |
| 20260502112017 | 10 | 30 | 22.5 | 32.2 | 0.00 | 0.00 | 0.00 | 53 | 1018.0 |
| 20260502111607 | 10 | 37 | 25.7 | 33.8 | 0.00 | 0.00 | 0.00 | 53 | 1018.0 |
| 20260502111016 | 10 | 38 | 25.7 | 33.8 | 0.00 | 0.00 | 0.00 | 52 | 1017.6 |
| 20260502110516 | 10 | 43 | 27.4 | 33.8 | 0.00 | 0.00 | 0.00 | 52 | 1017.3 |
| 20260502110121 | 10 | 36 | 25.7 | 32.2 | 0.00 | 0.00 | 0.00 | 51 | 1017.3 |
| 20260502105516 | 10 | 40 | 22.5 | 32.2 | 0.00 | 0.00 | 0.00 | 51 | 1017.3 |
| 20260502105019 | 10 | 40 | 22.5 | 32.2 | 0.00 | 0.00 | 0.00 | 51 | 1017.1 |
| 20260502104603 | 11 | 42 | 24.1 | 32.2 | 0.00 | 0.00 | 0.00 | 50 | 1017.2 |
| 20260502104017 | 11 | 44 | 22.5 | 30.6 | 0.00 | 0.00 | 0.00 | 49 | 1017.0 |
| 20260502103517 | 11 | 59 | 24.1 | 32.2 | 0.00 | 0.00 | 0.00 | 49 | 1017.0 |
| 20260502103115 | 11 | 46 | 24.1 | 32.2 | 0.00 | 0.00 | 0.00 | 49 | 1016.8 |
| 20260502102519 | 11 | 40 | 22.5 | 32.2 | 0.00 | 0.00 | 0.00 | 49 | 1016.8 |
| 20260502102015 | 11 | 34 | 20.9 | 29.0 | 0.00 | 0.00 | 0.00 | 49 | 1016.7 |
| 20260502101605 | 11 | 38 | 22.5 | 29.0 | 0.00 | 0.00 | 0.00 | 48 | 1016.8 |
| 20260502101019 | 10 | 36 | 19.3 | 25.7 | 0.00 | 0.00 | 0.00 | 49 | 1016.9 |
| 20260502100516 | 10 | 42 | 14.5 | 19.3 | 0.00 | 0.00 | 0.00 | 48 | 1016.8 |
| 20260502100126 | 10 | 38 | 9.7 | 17.7 | 0.00 | 0.00 | 0.00 | 48 | 1016.7 |
| 20260502091530 | 10 | 300 | 4.8 | 14.5 | 0.00 | 0.00 | 0.00 | 48 | 1016.3 |
| 20260502091018 | 10 | 275 | 9.7 | 14.5 | 0.00 | 0.00 | 0.00 | 48 | 1016.2 |
| 20260502090515 | 9 | 269 | 9.7 | 16.1 | 0.00 | 0.00 | 0.00 | 48 | 1016.0 |
| 20260502071012 | 8 | 292 | 6.4 | 14.5 | 0.00 | 0.00 | 0.00 | 46 | 1015.6 |
| 20260502070512 | 8 | 321 | 11.3 | 16.1 | 0.00 | 0.00 | 0.00 | 46 | 1015.7 |
| 20260502070030 | 8 | 313 | 9.7 | 16.1 | 0.00 | 0.00 | 0.00 | 46 | 1015.7 |
| 20260502065512 | 8 | 320 | 11.3 | 14.5 | 0.00 | 0.00 | 0.00 | 46 | 1015.6 |
| 20260502065009 | 8 | 321 | 8.0 | 12.9 | 0.00 | 0.00 | 0.00 | 45 | 1015.5 |
| 20260502064529 | 8 | 313 | 9.7 | 14.5 | 0.00 | 0.00 | 0.00 | 46 | 1015.7 |
| 20260502064009 | 8 | 306 | 8.0 | 14.5 | 0.00 | 0.00 | 0.00 | 45 | 1015.7 |
| 20260502063513 | 8 | 311 | 9.7 | 14.5 | 0.00 | 0.00 | 0.00 | 44 | 1015.6 |
| 20260502063028 | 8 | 312 | 11.3 | 14.5 | 0.00 | 0.00 | 0.00 | 44 | 1015.4 |
| 20260502062511 | 9 | 316 | 11.3 | 14.5 | 0.00 | 0.00 | 0.00 | 43 | 1015.4 |
| 20260502062010 | 9 | 316 | 11.3 | 14.5 | 0.00 | 0.00 | 0.00 | 43 | 1015.6 |
| 20260502061532 | 10 | 321 | 9.7 | 14.5 | 0.00 | 0.00 | 0.00 | 42 | 1015.4 |
| 20260502061012 | 10 | 318 | 9.7 | 14.5 | 0.00 | 0.00 | 0.00 | 42 | 1015.5 |
| 20260502060512 | 10 | 324 | 8.0 | 14.5 | 0.00 | 0.00 | 0.00 | 41 | 1015.5 |
| 20260502060032 | 11 | 317 | 11.3 | 14.5 | 0.00 | 0.00 | 0.00 | 39 | 1015.4 |
| 20260502055514 | 12 | 304 | 11.3 | 17.7 | 0.00 | 0.00 | 0.00 | 38 | 1015.4 |
| 20260502055015 | 12 | 294 | 14.5 | 19.3 | 0.00 | 0.00 | 0.00 | 37 | 1015.4 |
| 20260502054531 | 12 | 292 | 16.1 | 19.3 | 0.00 | 0.00 | 0.00 | 37 | 1015.4 |
| 20260502054011 | 11 | 298 | 17.7 | 19.3 | 0.00 | 0.00 | 0.00 | 39 | 1015.5 |
| 20260502053513 | 10 | 302 | 16.1 | 19.3 | 0.00 | 0.00 | 0.00 | 40 | 1015.5 |
| 20260502053030 | 10 | 309 | 16.1 | 19.3 | 0.00 | 0.00 | 0.00 | 40 | 1015.5 |
| 20260502052513 | 10 | 301 | 14.5 | 20.9 | 0.00 | 0.00 | 0.00 | 40 | 1015.4 |
| 20260502052010 | 10 | 313 | 16.1 | 20.9 | 0.00 | 0.00 | 0.00 | 39 | 1015.4 |
| 20260502051549 | 10 | 306 | 16.1 | 19.3 | 0.00 | 0.00 | 0.00 | 40 | 1015.4 |
| 20260502051014 | 9 | 320 | 12.9 | 17.7 | 0.00 | 0.00 | 0.00 | 40 | 1015.4 |
| 20260502050510 | 9 | 309 | 14.5 | 17.7 | 0.00 | 0.00 | 0.00 | 39 | 1015.5 |
| 20260502050032 | 10 | 302 | 12.9 | 16.1 | 0.00 | 0.00 | 0.00 | 37 | 1015.4 |
| 20260502045512 | 10 | 290 | 12.9 | 16.1 | 0.00 | 0.00 | 0.00 | 36 | 1015.4 |
| 20260502045012 | 11 | 296 | 12.9 | 16.1 | 0.00 | 0.00 | 0.00 | 35 | 1015.4 |
| 20260502044532 | 11 | 298 | 12.9 | 16.1 | 0.00 | 0.00 | 0.00 | 35 | 1015.5 |
| 20260502044013 | 11 | 300 | 12.9 | 17.7 | 0.00 | 0.00 | 0.00 | 35 | 1015.6 |
| 20260502043512 | 11 | 296 | 14.5 | 17.7 | 0.00 | 0.00 | 0.00 | 35 | 1015.4 |
| 20260502043029 | 11 | 301 | 14.5 | 17.7 | 0.00 | 0.00 | 0.00 | 35 | 1015.2 |
| 20260502042512 | 11 | 309 | 14.5 | 17.7 | 0.00 | 0.00 | 0.00 | 35 | 1015.2 |
| 20260502042010 | 12 | 298 | 14.5 | 17.7 | 0.00 | 0.00 | 0.00 | 34 | 1015.3 |
| 20260502041531 | 12 | 298 | 16.1 | 17.7 | 0.00 | 0.00 | 0.00 | 33 | 1015.3 |
| 20260502041012 | 13 | 295 | 16.1 | 19.3 | 0.00 | 0.00 | 0.00 | 32 | 1015.3 |
| 20260502040512 | 13 | 286 | 16.1 | 20.9 | 0.00 | 0.00 | 0.00 | 31 | 1015.4 |
| 20260502040035 | 15 | 288 | 17.7 | 24.1 | 0.00 | 0.00 | 0.00 | 30 | 1015.5 |
| 20260502035511 | 15 | 284 | 17.7 | 25.7 | 0.00 | 0.00 | 0.00 | 29 | 1015.3 |
| 20260502035011 | 15 | 278 | 20.9 | 29.0 | 0.00 | 0.00 | 0.00 | 29 | 1015.4 |
| 20260502034545 | 15 | 284 | 20.9 | 29.0 | 0.00 | 0.00 | 0.00 | 28 | 1015.2 |